Location: Palmerston North
(40.3500°S, 175.6170°E)
Time: 21:58:00
(UTC+12:00)

Cosmos 1805 Rocket - Pass Details

Date: 24 January 2019
Orbit: 605 x 630 km, 82.5° (Epoch: 22 April)

Event Time Altitude Azimuth Distance (km) Brightness Sun altitude
Rises 21:10:55 0° 192° (SSW) 2,909 7.7 -5.4°
Reaches altitude 10° 21:13:11 10° 194° (SSW) 1,993 6.9 -5.8°
Maximum altitude 21:17:32 63° 275° (W) 691 4.1 -6.5°
Drops below altitude 10° 21:21:49 10° 355° (N) 1,960 5.9 -7.2°
Sets 21:24:02 0° 358° (N) 2,856 6.7 -7.5°
